Location: Bannatyne
(13.0833°N, 59.5333°W)
Time: 15:40:24
(UTC+00:00)

deb Explorer IX - Pass Details

Date: 26 January 2020
Orbit: 549 x 1099 km, 38.8° (Epoch: 23 February)

Event Time Altitude Azimuth Distance (km) Brightness Sun altitude
Rises 09:28:27 0° 294° (WNW) 3,667 - -14.0°
Reaches altitude 10° 09:31:31 10° 285° (WNW) 2,632 - -13.3°
Exits shadow 09:33:07 17° 276° (W) 2,140 ? -12.9°
Maximum altitude 09:36:58 31° 225° (SW) 1,430 ? -12.0°
Drops below altitude 10° 09:41:44 10° 163° (SSE) 2,287 ? -10.9°
Sets 09:44:15 0° 153° (SSE) 3,119 ? -10.3°
